Theta_e
313 315 314 313 314 316 317 317 316 316 316 316 315 315 314 313 314 316 315 316 316 315 315 316 316 316 316 319 318 317 317 318 321 320 323 332 337 337 339 341 341 341 340 339 338 337 337 337 337 334 334 335 333 335 336 334 332 331 331 330 328 328 328 326 325 326 324 324 327 329 329 328 329 330 330 329 326 326 326 325 326 327 325 326 327 327
313 315 314 314 316 318 320 321 321 319 319 318 317 315 314 315 316 317 317 317 317 317 316 317 318 316 317 319 318 318 320 321 323 321 323 332 337 336 338 338 338 337 336 335 335 336 337 337 335 332 333 334 334 335 336 334 331 331 331 330 328 328 326 324 325 326 325 325 327 329 329 328 328 329 329 327 327 327 325 323 322 322 320 322 323 323
314 314 315 316 318 320 320 322 323 322 321 319 318 317 316 317 317 317 320 318 317 319 317 317 317 318 319 319 319 321 323 322 322 322 323 332 337 335 335 335 334 334 333 334 334 336 336 335 334 334 334 334 334 334 334 332 330 329 331 330 329 327 324 324 325 324 323 323 327 327 327 326 327 329 328 328 329 327 327 325 320 318 319 321 320 319
315 314 314 316 317 320 321 321 323 324 324 322 320 318 317 318 316 317 322 321 321 325 322 320 321 324 321 318 322 321 321 321 321 323 321 328 334 333 334 333 333 333 331 332 333 335 335 332 333 334 334 334 334 334 333 332 330 329 329 329 329 326 324 325 324 322 322 323 326 325 325 325 326 328 328 328 326 324 325 324 320 322 325 325 325 323
315 314 314 315 316 319 320 321 324 324 324 325 323 320 319 318 317 317 321 323 328 330 329 327 327 332 328 320 324 322 321 324 321 323 320 326 332 332 332 331 331 331 330 330 331 332 333 332 334 334 333 333 333 333 332 331 331 330 329 329 328 325 324 324 323 323 324 325 327 326 326 327 327 328 327 321 317 316 317 316 319 324 326 325 325 326
312 314 316 316 315 317 317 320 325 324 322 324 325 323 321 319 319 319 318 320 324 324 327 325 322 330 333 322 324 324 324 325 322 325 320 326 331 331 331 331 330 331 330 329 330 329 329 332 334 333 332 332 332 332 331 331 331 331 330 328 326 323 323 325 325 326 326 325 326 326 327 327 329 329 323 316 317 318 316 316 320 323 324 325 325 325
313 314 317 318 317 316 316 318 323 325 321 321 322 322 320 319 318 319 318 317 318 320 325 323 319 326 331 322 323 324 324 326 326 328 325 328 330 331 330 331 331 331 331 330 330 329 328 330 333 332 331 331 331 331 330 330 330 330 329 327 324 323 324 327 327 326 326 326 326 326 327 328 329 326 319 318 323 323 318 319 324 323 322 324 323 322
315 315 317 320 320 318 318 319 322 323 321 319 320 319 317 317 317 319 318 315 319 325 324 322 321 322 322 322 325 324 323 327 327 328 330 329 330 331 331 332 332 331 331 330 329 328 328 330 332 332 331 330 330 330 330 330 329 328 327 325 323 322 325 327 326 326 327 325 324 326 328 326 323 320 319 322 325 324 321 320 323 322 321 323 324 322
318 318 318 321 320 318 319 320 322 321 318 319 319 318 316 316 316 317 317 316 322 325 321 321 322 319 320 325 326 322 321 325 327 328 329 329 331 331 331 331 331 332 331 330 329 328 328 330 332 332 330 329 330 330 330 330 329 328 327 325 323 322 324 327 327 327 327 324 323 327 326 320 320 320 321 324 325 323 321 320 322 322 323 324 325 324
319 318 318 319 319 319 319 319 320 319 318 318 317 318 316 315 317 316 316 317 319 322 322 323 322 319 324 330 325 321 321 324 327 329 329 330 331 331 331 331 330 331 330 330 330 329 330 331 332 332 330 330 333 332 330 328 328 328 327 325 323 322 325 327 327 326 325 322 321 322 321 320 324 325 323 324 324 320 320 322 324 324 324 324 324 323
317 317 317 317 317 318 319 319 318 317 317 318 317 317 315 316 319 318 319 318 317 322 325 325 322 318 324 333 330 325 327 329 330 329 330 329 330 331 331 331 331 331 331 331 331 331 331 331 331 331 329 331 333 331 327 326 326 328 326 324 322 323 325 325 325 324 319 315 316 318 321 324 326 325 321 320 318 318 321 324 325 324 323 323 322 322
314 316 317 317 317 317 318 317 316 316 316 316 316 316 316 320 321 317 317 315 316 323 324 320 319 318 320 329 331 328 330 332 329 329 331 330 330 331 330 332 332 331 332 332 332 331 330 331 331 330 329 331 332 329 325 325 326 326 325 322 322 323 324 322 323 320 314 315 318 320 325 327 326 321 315 313 313 316 320 322 323 321 320 320 320 320
316 316 317 317 317 316 316 316 315 315 316 316 317 316 317 319 319 318 318 318 321 326 324 319 318 320 323 326 329 329 330 331 329 329 331 330 331 331 331 332 333 332 333 332 333 331 330 330 330 330 331 331 329 326 325 325 325 325 323 323 323 323 322 320 321 317 312 317 319 318 323 326 322 314 310 310 309 311 316 319 321 320 318 316 314 314
316 316 314 315 317 316 316 315 314 318 318 316 317 318 319 321 320 319 320 320 322 324 323 319 317 323 329 328 327 329 327 328 329 329 330 331 331 331 331 332 333 333 333 332 333 332 330 329 329 330 331 330 327 326 325 325 324 323 323 325 324 321 320 320 320 315 313 318 318 318 323 323 318 312 309 310 308 309 317 320 320 319 317 314 311 311
316 317 316 316 316 316 316 314 315 319 319 317 318 317 321 326 324 321 321 320 321 324 326 322 319 325 331 329 328 327 325 326 327 329 331 331 330 331 331 332 333 333 332 332 332 332 331 330 329 329 329 327 326 326 326 325 324 323 323 325 324 320 319 320 319 314 316 321 321 322 326 324 318 312 309 311 310 311 316 318 318 319 318 316 311 310
314 317 317 315 316 316 316 316 316 315 318 324 321 313 318 326 326 324 325 322 321 326 327 324 325 327 329 330 328 326 326 328 327 328 330 330 331 331 331 332 333 333 332 331 332 333 333 331 330 329 329 327 327 326 327 326 324 323 322 324 325 322 320 320 319 316 318 322 323 324 326 323 316 311 311 313 314 312 313 316 319 320 320 318 312 308
314 320 320 313 315 316 314 317 316 313 321 329 322 314 319 324 322 323 325 323 322 324 323 325 329 326 325 329 327 326 329 329 328 328 328 330 331 331 331 331 332 332 331 330 331 332 333 333 331 330 330 330 329 327 327 326 325 324 322 323 326 324 320 321 322 321 321 322 323 324 323 318 314 312 315 316 316 315 314 318 322 321 320 318 312 308
317 320 322 315 314 316 314 316 316 314 320 323 319 317 322 323 325 327 325 323 323 322 321 327 329 325 327 329 326 329 332 330 329 329 328 329 331 331 330 330 330 332 331 329 330 330 331 333 332 330 331 330 329 327 327 326 326 325 324 324 325 323 320 321 323 323 322 321 323 323 318 314 314 316 319 319 318 317 316 319 322 320 318 316 311 308
317 317 320 317 316 319 317 314 316 316 315 319 320 319 323 329 333 331 323 321 324 324 322 325 329 328 329 330 327 329 331 331 331 330 328 329 330 330 329 329 329 330 330 330 330 330 332 332 331 331 331 330 328 328 327 327 327 327 325 324 324 323 322 323 324 324 322 321 322 321 315 315 318 320 322 321 318 316 316 318 320 317 315 313 309 307
321 321 322 321 317 321 321 315 317 319 315 316 318 316 322 332 333 329 324 322 325 327 324 325 332 335 333 331 330 330 330 331 332 331 330 329 329 330 329 329 329 328 329 329 329 330 331 332 332 331 331 330 329 329 328 329 329 328 326 325 324 324 324 325 325 324 323 321 321 320 316 318 322 323 323 322 317 313 313 316 317 315 313 311 307 305
322 323 325 325 319 321 324 319 318 319 316 316 317 315 319 324 326 325 326 321 320 325 327 327 332 338 337 333 330 330 330 330 332 332 330 328 328 329 329 329 329 329 329 329 329 331 331 332 332 331 330 331 330 329 329 330 330 329 328 328 326 326 326 326 325 325 324 322 321 320 318 321 324 323 323 321 316 311 310 312 314 313 312 309 306 304
321 322 327 328 321 321 323 319 316 317 316 316 317 318 319 323 326 324 324 323 319 320 324 327 332 335 334 331 328 329 330 329 329 330 328 327 328 328 329 330 330 330 330 330 330 331 331 330 330 330 330 330 331 330 329 330 330 329 330 330 329 329 328 327 326 325 324 323 322 320 320 321 324 323 322 320 314 309 308 310 313 312 311 309 305 304
322 322 323 324 320 319 319 317 318 318 316 317 317 317 318 322 326 324 325 330 327 322 323 328 334 335 330 326 326 327 327 327 326 326 326 326 327 327 328 329 330 330 330 329 329 329 330 329 328 327 328 328 329 329 329 330 330 329 329 329 329 330 329 328 327 325 325 324 322 321 321 321 323 322 321 318 312 308 308 310 312 311 310 308 305 305
321 321 322 324 326 325 321 318 319 317 316 319 318 317 319 320 322 322 323 329 330 327 327 328 331 332 328 325 325 325 325 325 325 325 325 325 326 326 326 327 328 329 328 327 328 328 328 327 326 326 327 327 326 326 327 328 328 328 327 328 328 327 328 328 327 325 325 324 323 321 321 322 323 322 320 316 311 307 307 308 309 309 308 307 305 305
323 326 324 326 330 330 325 324 325 322 319 319 318 318 320 320 324 326 327 330 330 326 325 327 329 328 326 325 325 324 324 325 325 325 325 325 325 324 324 325 326 327 326 326 326 327 326 325 326 326 327 327 326 326 326 326 327 327 326 326 327 327 327 327 326 325 324 324 324 322 321 322 323 323 322 319 314 308 307 307 307 307 306 305 305 305
329 330 323 322 326 329 329 329 328 324 321 320 318 318 320 321 324 327 329 330 328 325 326 329 329 328 326 325 325 324 325 325 325 325 324 324 324 324 324 324 324 325 325 325 325 326 325 325 325 326 325 326 326 326 326 326 326 327 326 327 327 327 327 326 326 326 325 326 326 325 324 324 324 324 323 321 317 313 310 308 307 307 306 306 306 305
326 326 321 320 323 327 330 328 324 321 322 322 319 317 320 322 322 325 330 330 326 327 329 327 327 328 326 326 326 326 325 325 324 324 324 323 323 323 323 323 324 324 324 324 324 324 324 325 325 324 324 325 325 325 325 326 325 325 326 326 326 325 325 325 325 325 326 326 324 323 324 324 323 324 323 322 320 318 314 312 311 309 306 306 307 307
321 323 323 323 322 321 323 322 320 320 319 319 319 318 320 322 322 323 328 327 324 326 328 324 325 328 327 327 327 325 325 324 323 323 322 322 322 322 322 323 323 322 321 321 320 320 321 322 323 323 323 325 325 325 325 325 325 325 325 325 325 324 323 324 324 324 325 324 320 320 323 325 324 325 324 323 321 319 318 319 317 311 305 307 310 312
320 322 324 323 321 318 317 318 320 320 317 317 320 320 319 321 322 322 323 323 325 329 328 325 326 327 325 324 324 324 323 322 322 322 321 320 320 321 322 321 319 316 315 315 314 315 317 319 322 323 323 323 324 324 325 325 325 325 325 325 325 325 324 324 325 325 324 322 320 322 324 325 325 324 324 324 322 319 319 321 319 311 307 312 317 317
320 324 323 320 319 318 316 316 317 317 318 318 319 319 318 319 319 319 321 323 326 328 327 324 322 320 317 315 315 318 318 318 319 320 318 316 315 315 315 313 311 310 310 310 311 311 313 316 318 320 321 322 322 322 323 324 324 323 323 324 325 324 325 325 325 325 323 321 321 323 324 324 324 323 322 322 321 320 319 320 319 314 312 317 321 320
320 324 323 320 321 319 316 316 316 317 319 318 318 318 318 318 318 318 320 323 324 325 323 321 317 314 312 310 309 311 312 313 313 313 312 311 310 310 309 308 308 308 308 308 309 309 310 312 314 315 316 318 319 320 321 322 323 321 321 323 323 322 323 324 324 323 322 321 323 324 324 323 324 323 323 322 320 320 321 320 320 318 317 320 321 320
322 323 322 321 324 321 316 316 318 318 320 320 321 320 318 319 319 318 319 321 322 323 322 319 316 313 311 308 307 308 308 309 308 307 307 307 307 307 307 306 306 306 307 308 308 309 309 310 311 311 311 312 314 315 317 320 321 321 321 322 320 320 321 322 322 322 321 320 321 323 323 322 322 322 323 323 321 321 322 322 321 320 319 320 320 320
321 323 323 322 323 321 317 318 320 321 322 322 321 319 319 319 318 317 318 319 318 319 320 318 316 312 309 308 307 307 307 306 306 305 305 305 305 305 305 305 305 306 307 308 308 308 309 309 309 309 309 310 310 310 312 315 319 320 321 322 321 320 320 320 320 320 320 319 319 321 322 321 321 322 322 322 321 320 320 321 321 320 319 319 319 320
322 326 325 321 322 320 318 320 322 322 322 321 319 319 318 318 317 317 318 319 319 318 316 314 312 310 309 308 307 306 305 304 304 304 304 304 304 303 303 304 305 307 308 308 308 309 309 309 309 309 309 309 309 309 310 311 313 315 317 318 318 317 316 314 314 316 317 317 318 320 322 321 321 321 321 322 321 320 319 319 320 321 320 320 320 320
324 326 324 320 320 320 319 320 321 320 319 319 318 316 316 317 316 315 315 316 317 315 311 309 308 307 306 305 304 304 303 303 304 305 305 306 306 305 304 304 305 307 308 308 309 309 309 310 310 310 310 310 310 310 310 310 310 311 311 311 312 312 311 311 311 311 311 312 313 316 319 319 319 318 319 320 320 319 319 319 321 321 321 320 321 321
326 324 321 319 318 318 319 320 319 317 317 317 315 312 313 314 315 315 316 314 313 311 308 307 307 306 305 305 304 304 304 304 305 305 305 306 307 306 305 304 305 306 307 307 308 308 309 310 311 310 310 310 310 311 310 310 310 310 310 310 310 311 311 312 312 311 311 311 311 311 313 315 316 317 318 318 319 319 319 319 319 319 318 318 318 319
324 322 321 320 317 316 320 319 317 316 316 316 313 310 310 311 311 315 317 314 311 310 308 307 307 306 306 306 305 305 305 305 304 304 305 305 306 306 306 305 305 306 306 306 306 307 307 308 309 310 310 310 311 311 311 310 310 311 311 311 311 311 312 312 312 311 311 311 311 311 311 312 313 314 315 316 317 319 319 318 317 316 316 316 316 316
319 320 321 321 317 316 319 318 316 316 316 314 312 310 309 308 308 312 315 314 311 310 308 307 307 307 306 306 305 306 306 305 304 304 304 304 304 305 305 305 306 306 305 305 306 306 307 307 308 309 309 308 308 309 309 309 310 310 310 311 311 311 312 312 312 311 311 311 311 311 311 312 312 312 312 313 314 315 316 316 316 316 315 314 314 315
318 320 321 321 318 318 319 317 315 316 314 312 311 311 309 307 307 311 315 314 311 310 309 308 308 307 307 307 307 307 307 306 304 304 303 303 303 303 303 303 303 303 303 303 304 305 305 306 307 307 308 308 308 308 308 308 309 309 309 309 310 310 310 310 310 310 309 309 308 309 310 310 311 311 312 312 313 313 313 313 313 314 315 315 315 314
318 319 320 320 319 318 318 316 313 313 312 310 310 310 309 307 308 313 316 314 311 310 309 309 309 309 309 309 308 307 306 306 305 304 304 304 303 303 302 302 301 301 301 302 302 303 303 303 303 304 305 305 306 306 307 307 308 308 307 307 308 309 309 309 309 309 308 307 307 307 307 308 309 310 310 309 310 311 312 313 313 313 313 314 315 315
315 315 315 317 317 316 315 314 312 311 310 309 308 308 308 309 311 313 314 313 310 309 309 309 309 309 308 307 307 306 306 305 305 305 304 303 303 302 302 301 301 301 301 301 301 302 302 302 301 301 301 301 301 301 302 302 304 304 303 303 304 305 304 304 304 304 303 303 302 303 304 305 306 306 305 304 304 305 306 309 310 311 311 312 312 313
313 312 314 315 314 314 314 313 312 311 309 307 308 308 307 311 313 311 310 309 308 307 307 307 307 306 306 305 305 305 305 305 304 304 303 303 302 302 302 301 301 300 300 300 300 300 300 301 301 300 300 300 300 299 299 298 299 300 299 299 300 300 300 300 299 299 299 299 299 299 300 301 301 301 301 301 303 304 305 305 306 307 308 310 311 312
311 312 313 312 311 312 313 312 311 310 308 307 309 309 307 310 311 309 307 307 307 306 306 306 305 305 305 305 304 304 304 304 303 303 303 302 302 301 301 301 300 299 299 299 298 298 298 299 298 298 299 300 300 299 298 298 297 298 298 298 299 299 298 298 298 298 298 299 299 299 299 299 299 299 300 301 303 304 305 306 306 306 306 306 308 310
310 312 313 311 310 311 312 310 309 308 306 305 307 307 306 307 308 307 306 306 306 305 306 305 305 305 304 304 304 304 303 303 303 303 302 302 301 301 301 300 299 298 299 299 298 298 297 298 298 299 300 300 300 299 298 297 297 297 297 298 299 299 299 299 298 299 299 299 299 299 300 300 299 299 300 301 303 303 304 305 305 305 305 304 305 306
309 309 310 309 309 309 310 308 307 306 305 305 305 305 305 306 306 306 305 304 304 304 305 305 304 304 304 304 304 303 303 302 302 302 302 301 300 300 300 299 298 298 299 299 299 298 297 298 299 300 300 300 299 298 298 297 297 297 298 298 298 298 298 298 299 299 300 300 300 300 300 300 299 299 299 299 300 301 302 303 303 304 304 305 305 305
307 307 308 308 308 307 307 307 305 305 305 304 304 304 304 304 304 304 304 303 303 303 303 304 304 304 303 303 303 302 302 302 301 301 301 300 300 300 300 299 299 300 299 299 298 297 297 297 299 299 299 299 298 298 298 298 298 298 298 299 298 298 298 298 298 298 299 300 300 300 300 300 300 300 300 300 300 301 301 302 303 303 303 304 304 303
305 307 308 308 307 308 308 306 305 305 305 304 304 304 304 303 303 303 303 302 302 302 303 303 303 303 303 302 302 301 301 300 300 300 300 300 300 300 300 300 300 299 299 299 298 298 297 298 298 298 298 298 298 298 298 298 298 298 298 298 298 298 298 298 298 298 298 298 298 299 299 299 299 299 299 300 300 301 301 301 302 302 302 302 302 302
304 306 308 308 307 308 307 306 305 305 304 303 303 303 303 303 303 302 302 302 301 301 301 301 301 301 301 301 301 301 300 300 300 300 300 300 300 299 299 299 299 299 298 298 298 297 297 298 298 298 298 298 298 297 297 297 298 298 298 298 298 298 298 298 298 298 298 298 298 298 298 298 298 298 298 298 299 299 300 300 300 300 301 301 301 301
304 306 307 307 306 307 306 305 304 305 304 303 303 302 303 303 302 301 301 300 300 300 300 300 299 300 300 301 301 300 300 300 299 300 300 300 299 299 299 298 298 298 298 297 297 297 297 297 297 297 297 297 296 296 296 296 296 296 297 297 297 297 297 297 297 297 297 297 298 298 298 298 298 298 298 299 299 299 299 299 299 299 300 300 300 300
305 306 306 307 307 307 306 305 305 305 304 303 303 302 302 302 302 301 301 301 301 301 300 300 299 299 299 300 300 300 300 299 299 299 299 299 298 298 298 298 297 297 297 297 297 296 296 296 296 296 296 296 296 296 296 296 296 296 296 296 296 296 296 296 296 296 296 296 296 297 297 298 298 298 298 298 298 299 299 299 299 299 299 299 300 299
304 304 306 307 307 306 305 305 304 304 303 303 303 302 302 302 302 301 301 301 301 301 300 300 300 299 299 299 299 299 299 298 298 298 298 298 298 298 297 297 297 297 297 296 296 296 295 295 296 296 297 297 297 296 296 296 296 296 296 296 296 296 296 296 295 295 294 294 295 295 295 296 296 297 297 298 298 298 298 298 298 299 299 299 299 299
Wind_Speed
11 5 5 7 6 7 9 10 12 11 10 11 10 7 8 7 6 10 13 14 11 9 14 13 10 14 13 10 12 16 20 15 14 20 19 28 30 29 30 28 27 22 20 22 22 18 17 16 15 14 15 17 19 22 24 24 25 28 29 28 26 25 26 25 24 23 23 24 23 22 20 17 14 13 12 8 6 7 8 8 7 7 7 7 7 7
11 6 7 9 8 10 11 10 11 12 12 10 7 7 8 8 8 11 15 16 12 7 11 11 9 12 13 10 12 12 11 6 11 15 16 26 28 27 30 25 25 28 26 24 21 16 16 16 13 13 18 22 23 23 24 26 27 29 29 27 26 26 25 24 24 24 25 25 23 23 21 17 15 14 13 11 9 8 8 9 8 7 8 7 7 7
6 6 9 10 9 10 11 11 10 11 11 9 6 6 6 7 7 11 16 14 7 6 8 11 9 9 11 13 12 7 9 11 16 19 21 30 30 26 26 28 32 31 28 26 21 16 16 15 13 14 20 25 25 25 26 27 29 30 29 27 26 26 25 25 24 24 24 24 22 20 19 17 17 17 14 13 13 10 9 8 7 8 9 8 6 6
4 8 11 11 10 10 11 11 8 5 6 6 5 5 6 7 5 6 10 8 2 6 6 8 4 3 6 8 8 6 11 15 20 23 23 27 26 24 31 40 39 38 38 34 27 22 19 19 20 21 24 26 27 28 28 29 29 29 29 28 28 27 27 27 25 24 24 23 22 19 18 17 18 18 15 15 14 13 12 11 9 10 10 8 8 6
8 11 13 12 12 11 10 11 7 3 3 4 4 5 5 8 8 6 8 10 7 4 5 7 4 5 3 3 6 6 9 12 15 17 14 20 34 39 40 41 41 42 41 37 32 27 23 25 27 26 26 27 28 30 30 30 29 29 29 28 28 29 29 28 26 26 25 24 23 21 19 19 18 17 13 14 15 13 12 11 13 13 10 9 10 8
11 14 13 12 13 13 12 10 6 6 3 4 4 6 8 11 11 8 10 8 6 5 2 6 3 5 5 3 6 6 4 8 10 13 11 25 45 47 42 40 40 37 31 30 28 24 24 26 28 28 28 30 31 31 30 29 29 29 29 28 28 30 31 29 28 27 26 25 25 23 22 21 20 17 13 12 13 12 11 13 14 13 13 12 11 9
8 14 12 12 14 15 13 10 5 6 2 3 3 5 10 12 9 8 9 6 1 3 2 4 4 3 6 5 7 5 5 8 9 8 8 24 40 43 44 41 37 33 31 29 24 22 25 27 28 29 31 33 32 32 31 30 30 29 28 28 30 31 31 30 29 28 26 25 24 23 22 20 19 17 14 13 13 13 13 14 14 12 13 13 10 7
8 13 11 9 10 9 9 6 4 6 4 4 4 6 11 12 9 7 5 5 3 2 1 2 5 2 4 5 8 6 5 6 9 8 12 23 32 37 41 39 36 36 36 33 28 26 26 26 28 30 31 32 31 32 32 31 31 29 28 28 31 32 30 29 28 27 25 24 23 22 21 19 17 17 17 16 16 14 12 13 13 12 12 10 8 6
8 12 10 7 5 3 4 5 5 7 5 5 6 8 11 10 10 7 5 6 2 3 2 3 5 2 4 6 7 7 5 6 8 11 15 21 27 32 35 36 37 37 34 31 28 26 26 27 28 28 29 30 30 31 31 30 30 28 27 29 31 32 30 29 27 25 23 22 21 21 21 19 19 18 18 17 17 15 12 13 14 13 14 14 11 9
5 11 12 7 5 3 3 5 6 7 6 6 7 9 9 8 9 7 5 5 1 3 4 5 3 2 4 5 4 6 7 7 7 10 14 19 28 32 33 34 33 32 33 30 26 25 26 28 28 28 30 30 28 28 29 29 29 28 27 28 31 32 30 28 26 24 23 21 21 21 20 20 19 17 17 17 16 15 15 16 16 15 15 15 13 11
8 10 11 6 6 7 6 5 7 9 8 7 6 7 7 7 6 5 4 4 3 1 6 6 3 2 3 6 3 4 5 6 7 9 11 15 22 28 32 34 30 31 36 31 25 26 28 28 28 29 31 30 28 28 27 27 28 28 28 29 31 32 30 28 26 24 23 22 22 22 20 18 17 16 17 17 17 17 17 17 17 16 15 14 14 14
11 9 5 2 3 6 7 6 7 10 10 7 5 4 3 5 4 3 1 3 2 4 5 6 5 4 3 5 4 4 3 7 12 12 11 12 16 21 28 31 30 33 36 31 29 29 28 29 29 30 31 30 29 28 25 25 27 27 28 31 32 32 30 29 27 24 23 24 24 21 18 16 15 15 15 16 17 17 17 18 17 14 13 13 13 14
8 5 3 4 5 3 4 4 6 8 6 6 5 4 1 2 2 2 2 3 4 4 4 7 6 4 4 2 3 5 7 7 11 15 16 16 18 21 26 28 29 34 35 30 30 29 27 29 29 30 31 29 28 28 25 25 26 27 29 31 31 30 30 29 27 25 25 26 24 21 18 16 15 14 14 14 16 16 16 16 15 12 10 10 11 13
4 5 4 5 4 6 6 3 3 5 3 4 4 5 3 2 1 2 3 2 2 4 6 8 7 4 1 1 3 6 8 6 11 20 25 25 26 27 27 26 26 30 31 29 29 28 26 26 27 29 31 29 28 28 26 25 25 27 29 29 28 28 29 28 25 24 25 25 23 21 19 17 16 15 14 15 16 16 16 14 12 9 8 8 11 13
3 5 5 5 4 8 9 6 5 4 2 4 4 5 4 4 4 3 2 2 3 3 5 5 4 2 2 2 2 8 12 15 17 22 28 29 30 30 28 29 28 28 28 26 25 25 23 23 25 28 30 31 30 27 26 26 25 27 30 29 27 27 28 26 23 23 24 23 22 21 19 17 16 15 15 15 16 16 16 14 11 9 7 8 10 12
4 4 7 10 9 9 9 8 6 3 2 3 2 2 4 4 5 3 2 4 4 1 3 1 1 2 3 2 2 9 13 16 19 20 22 21 24 27 29 31 33 31 27 22 20 22 22 24 26 27 28 30 28 25 26 27 26 27 30 29 27 26 27 25 23 23 23 22 22 21 19 18 17 16 16 16 16 16 16 14 11 9 7 7 9 10
3 4 5 10 13 10 9 8 6 4 2 2 1 2 6 5 6 4 2 2 3 2 2 1 2 1 2 1 3 10 11 11 14 16 16 15 19 24 27 30 34 34 30 23 21 23 25 27 27 25 24 26 27 26 25 27 27 27 28 27 26 26 27 26 25 24 22 22 22 20 19 18 17 17 17 17 17 16 15 15 13 10 8 7 8 9
4 5 6 4 7 9 11 12 8 7 7 3 2 5 3 2 2 4 2 1 3 1 3 3 5 3 3 1 1 8 10 8 9 10 13 18 22 23 25 29 31 32 31 27 25 26 27 28 27 24 23 25 27 26 25 26 27 26 26 26 25 26 27 26 25 24 23 22 22 20 20 19 18 18 18 17 17 17 17 16 14 11 9 7 7 9
3 3 7 3 0 4 5 9 7 7 7 5 4 5 2 3 2 1 2 2 2 2 3 1 3 2 2 1 1 6 8 7 7 8 10 13 17 20 23 28 30 29 29 29 28 28 28 29 28 26 25 24 25 24 24 26 25 24 25 25 25 26 26 26 25 24 24 24 22 21 21 20 18 18 18 17 16 17 18 16 13 11 9 8 8 9
1 3 3 6 1 2 3 3 5 5 5 5 3 0 2 4 3 1 2 3 3 2 2 2 2 1 2 3 3 6 7 8 8 7 8 9 14 19 21 24 26 27 28 30 29 28 29 29 26 26 23 22 23 23 24 26 25 23 24 25 27 27 27 28 27 27 27 26 25 23 22 21 19 19 18 16 16 17 18 15 12 12 10 8 9 9
3 3 2 6 3 4 2 2 2 1 2 4 4 1 1 2 2 1 1 2 4 2 2 1 1 4 4 3 3 7 7 7 8 7 7 10 16 19 21 22 22 23 26 28 27 26 27 25 23 23 22 22 23 25 26 26 26 25 25 26 27 28 30 31 30 29 29 28 26 24 23 23 21 19 18 16 14 16 15 13 11 12 11 9 10 10
2 0 3 3 3 2 2 3 6 7 7 3 1 2 1 2 4 3 2 3 2 3 2 4 2 4 4 3 2 4 6 6 8 9 8 11 17 20 20 22 21 22 23 24 24 22 21 20 18 19 21 21 23 25 27 26 26 26 25 25 25 27 30 31 31 30 29 28 26 24 24 24 23 20 18 15 13 12 12 12 11 11 11 11 11 11
2 0 1 2 1 2 3 5 9 10 9 8 6 7 5 3 3 4 2 3 1 2 1 2 3 2 3 7 9 8 6 7 8 8 10 13 15 16 17 19 20 21 19 19 19 18 17 16 15 17 20 18 18 22 24 25 25 24 22 23 24 25 27 30 30 28 27 27 26 24 24 23 22 20 17 13 11 10 10 11 12 12 11 11 11 11
4 2 2 2 2 3 4 6 8 10 10 7 6 8 7 6 4 1 4 3 2 1 1 3 1 2 3 7 10 11 12 15 15 12 12 15 14 13 14 16 19 20 19 19 19 17 16 15 12 14 17 16 18 22 23 23 24 22 21 23 23 23 25 28 28 27 26 25 25 25 24 21 19 17 14 11 9 9 9 9 10 12 11 11 12 12
3 1 2 3 3 5 6 5 5 7 6 3 5 8 9 10 9 4 2 4 2 3 4 4 1 2 2 5 9 8 8 10 9 8 11 15 15 14 14 14 14 15 17 19 20 19 19 18 17 16 17 17 19 21 21 22 22 21 22 22 22 22 24 25 25 24 25 24 24 24 22 20 17 14 12 10 9 9 9 8 8 9 10 10 11 12
1 1 2 3 2 1 1 2 1 2 2 1 5 10 12 12 10 4 2 4 2 1 4 5 4 3 3 5 8 7 6 7 7 8 12 15 15 15 14 14 14 14 15 15 19 22 20 19 20 20 18 18 18 18 18 17 16 17 18 17 18 19 19 19 18 17 18 20 20 19 18 18 18 16 16 14 13 12 11 10 10 10 10 11 11 12
3 1 1 3 4 4 4 4 4 3 2 3 6 11 12 11 11 7 4 2 1 1 3 3 7 9 6 5 6 6 6 7 7 10 14 16 17 16 14 15 17 19 19 18 18 21 20 19 20 18 16 17 18 17 18 17 13 13 13 14 15 15 15 15 14 14 15 15 14 13 14 16 18 19 18 17 16 15 13 12 11 10 11 12 11 11
3 1 2 5 3 3 5 5 4 3 3 5 7 10 12 11 12 10 5 3 3 2 3 2 7 10 5 4 6 4 6 7 7 11 16 18 18 14 14 18 21 23 22 20 20 21 21 20 19 19 17 15 15 16 17 17 15 14 12 10 10 10 11 12 13 13 11 10 12 14 14 15 18 19 19 17 16 14 13 12 10 9 11 11 10 10
2 1 2 4 3 3 3 5 4 3 4 5 7 8 10 12 11 9 4 5 4 4 6 6 9 9 4 4 5 6 7 8 10 16 21 23 23 19 19 22 25 27 28 27 26 25 24 23 20 19 18 15 14 12 12 12 13 12 10 8 7 7 9 10 9 8 5 6 10 13 13 15 17 17 17 16 15 14 14 14 12 13 14 13 11 11
2 1 3 1 3 2 5 7 6 5 5 5 7 7 9 12 11 8 5 7 6 8 11 13 15 11 6 6 7 10 14 16 18 22 25 27 28 29 29 28 29 31 31 30 31 31 30 28 25 22 21 20 19 16 12 10 10 9 7 6 7 6 6 6 5 3 3 5 7 8 9 12 14 16 17 16 15 16 16 15 15 17 18 17 16 15
5 0 4 3 1 2 7 8 7 7 6 6 8 7 8 11 9 7 6 7 7 9 10 14 16 9 5 7 10 13 19 23 22 23 23 24 29 32 32 31 30 32 32 32 33 33 33 32 30 28 26 24 22 20 17 14 12 10 6 5 5 5 5 5 4 2 3 5 6 6 7 7 10 14 16 15 16 17 18 17 17 18 19 19 19 18
4 2 2 2 3 2 2 6 8 8 7 6 7 6 6 8 7 5 4 3 3 6 7 9 11 5 2 7 12 14 18 22 20 19 22 24 27 30 30 29 30 32 33 33 33 33 34 33 32 31 30 27 24 22 19 15 13 13 11 10 11 10 9 9 8 7 8 6 4 6 7 7 9 12 13 13 14 16 18 18 17 18 20 21 21 20
0 1 2 3 3 4 6 4 7 7 6 4 3 5 4 5 7 7 6 4 4 4 4 4 7 5 3 8 12 11 14 17 17 17 20 23 25 28 28 28 29 31 32 32 32 32 32 31 31 30 30 29 28 28 25 18 14 12 11 13 17 19 19 20 18 17 15 11 6 5 6 5 6 8 11 12 12 14 17 18 20 21 21 21 21 20
1 4 2 2 3 2 7 7 6 5 4 1 5 5 2 6 9 10 7 5 6 7 6 7 8 7 7 10 11 9 12 16 18 19 21 23 25 27 26 27 28 29 30 29 29 29 28 27 27 27 28 28 28 28 29 26 22 19 16 17 19 21 23 26 26 24 22 18 12 8 7 6 4 4 6 8 9 11 13 15 18 20 22 23 23 22
3 5 2 1 4 1 2 5 5 2 1 3 4 5 7 9 12 14 11 8 9 13 13 12 10 9 12 16 17 18 22 24 24 24 24 24 25 25 25 25 26 26 26 24 23 23 23 22 22 22 23 24 23 23 25 27 27 26 26 26 25 23 24 26 28 29 28 26 22 17 13 11 10 8 6 5 6 7 7 9 11 13 15 18 19 19
4 4 2 2 3 2 2 3 3 3 1 2 5 9 9 7 8 10 10 9 8 10 13 13 11 10 15 20 21 24 28 28 25 23 21 20 20 22 23 23 23 24 23 21 20 19 18 17 17 17 17 17 18 19 20 22 23 24 25 26 25 24 23 22 23 25 25 25 25 23 19 16 14 12 9 5 4 5 5 4 3 3 5 7 9 11
5 4 3 2 2 1 3 2 2 3 2 4 5 6 7 6 5 2 4 5 5 7 13 13 11 12 15 18 22 25 26 25 20 15 15 17 16 16 18 19 20 21 21 19 18 17 15 13 12 12 11 11 13 13 13 14 16 17 19 19 19 19 18 17 17 18 18 17 17 17 16 15 15 15 12 9 5 4 5 5 4 3 3 3 4 6
6 4 4 3 1 1 3 2 1 2 1 2 3 6 8 10 10 5 4 3 2 8 15 14 11 12 14 16 19 19 16 15 10 6 11 18 18 17 17 17 16 18 19 18 16 14 13 11 9 7 7 8 9 9 8 7 8 10 11 11 12 12 12 12 12 11 11 10 9 9 9 9 9 9 10 11 11 8 5 5 5 4 4 5 6 6
8 5 4 4 2 2 3 2 1 2 1 2 5 8 9 14 15 8 4 2 1 8 16 15 11 11 13 14 14 12 9 7 4 6 14 19 20 19 20 19 18 18 18 18 17 16 13 11 10 8 6 6 7 7 7 6 5 6 6 7 6 5 5 5 6 4 4 5 4 3 3 3 3 3 3 4 6 6 5 5 4 2 1 4 6 7
6 3 4 4 2 2 3 2 2 2 0 3 5 8 10 13 12 6 3 1 4 10 15 15 12 11 12 12 10 8 6 7 8 11 15 18 18 19 19 19 18 16 16 17 18 17 15 13 12 11 9 8 8 8 7 7 6 6 8 9 8 7 6 5 4 4 5 5 4 3 2 2 3 3 3 3 2 2 3 4 3 2 1 2 3 6
3 2 3 4 3 3 3 3 2 1 1 4 7 12 13 8 4 3 1 2 7 13 15 15 14 12 12 13 13 12 12 16 18 18 17 18 19 19 18 17 15 13 14 16 16 14 12 10 10 11 10 8 6 6 6 6 6 6 7 8 7 7 7 7 7 8 9 9 8 6 4 4 6 7 8 8 7 7 6 7 8 8 7 5 4 4
3 3 3 3 2 3 3 2 2 1 3 6 10 12 12 4 2 3 6 11 17 20 20 21 19 18 20 23 22 22 23 24 22 20 18 18 18 17 15 14 13 12 10 10 11 11 9 6 5 7 7 4 3 4 4 4 4 4 4 4 5 5 6 7 8 10 11 12 11 10 9 8 9 9 8 7 6 8 8 7 8 10 11 11 9 8
1 1 3 2 2 2 3 3 3 1 6 8 5 6 9 4 4 8 16 20 21 22 23 23 21 20 23 25 25 25 25 23 21 19 16 14 12 11 10 9 10 9 7 5 6 7 5 4 5 6 4 2 2 3 4 4 3 3 4 4 4 6 8 8 9 10 11 12 13 13 12 11 11 10 9 8 7 8 8 7 7 8 10 11 12 12
3 1 2 1 2 2 2 2 3 3 8 14 10 4 4 7 11 18 21 19 18 22 24 23 22 22 24 25 24 23 22 20 18 16 14 12 10 7 6 5 6 8 5 4 5 6 5 6 7 6 2 2 4 5 6 7 6 5 6 6 7 8 9 9 9 10 10 11 12 13 14 14 13 12 11 11 10 11 10 9 9 10 10 10 10 11
3 6 7 3 2 4 4 4 7 10 14 20 19 15 16 19 21 24 26 23 22 23 24 25 24 22 22 23 21 19 18 16 14 12 10 11 9 6 4 4 6 6 4 3 4 6 5 5 6 4 1 3 6 7 7 7 7 6 6 7 9 10 10 11 11 11 11 11 12 13 15 16 15 14 14 14 14 13 13 12 11 11 10 9 9 10
9 15 12 6 5 7 9 10 12 15 18 21 22 21 22 24 24 25 27 27 25 23 23 24 22 19 18 19 19 18 15 13 11 10 8 7 7 5 4 5 6 6 3 4 6 7 7 5 3 2 3 4 6 6 6 5 4 4 4 6 9 10 11 12 13 13 13 13 14 15 15 16 16 15 15 14 14 14 14 13 13 13 12 11 11 10
6 11 8 4 4 4 5 7 9 12 16 19 22 22 22 23 24 24 25 24 23 22 21 20 19 17 15 15 16 16 14 11 9 8 6 6 7 6 5 6 5 3 3 5 7 6 5 3 1 3 4 5 6 6 6 5 4 4 6 7 10 11 12 12 13 13 13 14 15 15 15 16 17 18 17 16 15 15 14 14 14 14 12 12 12 13
5 8 6 4 4 4 5 7 11 15 18 19 19 19 19 19 19 20 20 19 18 18 16 15 15 16 15 13 11 12 12 10 8 8 8 10 9 8 6 5 3 2 3 3 5 4 1 1 3 3 4 6 8 8 9 8 7 8 10 11 13 15 15 15 15 14 14 13 13 13 14 14 15 15 16 16 14 14 13 12 13 13 12 11 12 14
10 9 5 4 6 5 6 10 13 14 15 16 17 16 16 16 17 18 18 17 16 16 16 14 12 13 14 13 10 10 10 9 8 8 8 10 9 7 6 5 4 3 2 1 3 4 5 6 7 7 7 8 8 8 8 8 9 10 10 11 13 14 14 15 15 15 15 15 13 13 14 14 13 12 13 13 13 12 11 10 11 11 12 11 9 10
11 6 3 5 6 4 3 7 10 8 7 11 15 15 14 14 16 17 17 15 15 15 14 14 14 13 12 11 10 11 11 8 6 7 6 6 7 6 5 4 3 2 1 1 4 6 6 6 4 4 5 6 6 6 6 8 10 10 10 11 13 14 14 14 14 14 13 13 14 15 15 16 15 14 14 14 14 15 14 13 13 13 13 13 13 12
9 5 5 6 5 5 5 10 14 12 10 13 16 15 14 14 15 16 15 14 14 14 13 15 16 13 11 9 8 9 9 7 6 5 5 5 6 5 3 3 1 2 2 3 4 3 4 6 6 6 5 4 5 5 6 7 9 11 13 14 14 15 13 12 12 12 10 10 11 11 13 14 15 16 16 17 18 19 20 20 19 18 16 16 15 14
Wind_Direction
197 204 226 220 224 225 227 223 232 248 250 255 264 271 271 267 263 255 250 238 223 195 197 198 176 196 216 227 248 256 265 267 191 173 154 151 159 161 164 170 168 153 132 132 135 139 146 146 145 152 173 175 165 163 157 152 155 157 157 159 158 155 159 164 160 152 148 145 145 145 143 141 136 130 132 141 164 167 153 142 139 143 149 152 152 149
197 207 228 223 225 229 233 228 225 240 254 263 269 281 286 282 280 280 275 251 219 176 189 184 163 192 206 217 234 236 244 240 161 167 155 151 158 162 164 158 132 112 109 120 119 127 153 150 147 166 169 165 164 159 157 157 157 159 161 161 159 156 156 160 157 151 148 147 145 143 143 148 152 154 158 157 151 147 142 141 146 150 144 141 147 149
199 230 229 223 228 229 237 239 229 235 247 255 263 273 276 279 292 293 287 267 205 150 179 177 174 199 200 210 226 206 184 183 174 177 167 157 162 170 157 124 108 108 111 118 126 145 154 145 155 166 156 159 162 157 157 160 159 161 163 162 160 157 156 156 157 155 152 148 145 146 148 153 158 162 165 159 152 155 159 158 151 137 124 115 124 143
209 233 222 220 232 233 242 242 224 229 251 241 236 255 267 272 288 297 303 313 83 109 137 153 172 237 207 211 240 217 186 189 182 177 173 161 154 149 126 108 111 116 113 117 132 148 151 153 161 157 150 157 161 159 162 163 162 163 164 164 161 159 159 159 160 157 150 146 146 147 148 152 157 160 165 168 168 175 178 175 152 127 116 110 117 136
236 235 214 212 232 234 244 247 215 185 262 261 229 239 265 273 282 300 315 331 3 37 81 94 45 328 275 234 275 253 195 192 175 160 159 123 111 116 116 111 114 113 112 117 124 135 151 161 163 158 156 161 163 165 166 166 167 166 165 165 162 162 163 162 161 157 151 149 150 151 151 155 160 163 169 169 164 168 169 161 146 140 142 139 137 156
240 242 216 204 224 229 237 246 213 177 236 292 249 237 254 266 278 299 308 326 1 338 1 84 66 306 299 279 272 271 188 186 156 143 147 108 104 114 118 115 114 112 114 119 121 135 154 163 163 160 161 165 167 166 166 168 170 168 166 164 163 164 165 163 162 159 157 157 158 160 161 163 167 168 166 156 151 154 151 144 145 150 157 163 170 188
234 245 228 203 211 219 226 234 201 157 191 270 249 252 263 265 267 278 295 316 16 248 251 103 132 253 302 294 264 251 168 166 146 135 127 108 111 119 122 122 123 123 126 128 132 144 155 165 164 161 165 168 169 168 167 169 170 168 166 164 165 167 166 165 164 163 163 164 163 164 167 169 174 169 154 146 150 154 149 147 153 156 160 172 181 187
212 233 243 220 208 208 209 217 193 161 184 239 227 251 266 269 261 242 253 276 248 203 207 125 137 168 287 271 259 242 165 156 157 130 94 104 116 123 127 131 132 132 135 137 143 149 157 168 166 165 168 169 171 171 170 170 170 170 168 166 168 170 169 168 168 166 167 169 167 167 170 170 171 166 153 152 159 162 161 157 161 161 154 151 137 131
200 214 233 229 220 215 181 188 196 185 203 238 220 236 257 266 266 247 216 247 252 74 327 247 148 142 270 266 273 256 204 183 169 130 106 115 124 127 131 132 132 136 140 142 148 154 162 167 166 167 170 171 174 173 170 169 169 171 170 169 171 173 173 171 170 170 170 172 168 168 170 163 160 163 159 162 170 174 169 153 150 149 141 140 138 133
213 208 209 201 209 228 204 201 204 200 210 228 225 240 260 268 271 260 218 220 144 107 263 254 166 148 273 279 279 246 212 194 170 127 119 126 127 131 134 132 134 140 143 147 154 160 164 167 167 168 171 174 176 174 170 167 169 172 172 172 174 175 174 171 171 172 171 171 168 166 166 160 161 167 170 174 176 172 160 147 149 154 153 158 160 155
257 227 208 195 196 193 205 224 220 223 219 215 223 237 258 269 273 262 208 159 106 199 240 242 216 164 263 284 266 235 217 172 142 115 118 122 124 131 131 130 138 143 143 148 154 162 169 170 168 168 172 173 173 172 168 167 170 172 173 175 175 175 174 173 173 173 169 165 163 163 163 163 167 175 180 179 172 164 158 158 166 171 171 174 171 164
251 241 215 236 240 185 192 229 236 232 219 208 216 209 253 289 309 333 327 135 156 249 230 211 216 184 207 281 299 321 8 118 126 122 128 120 118 128 127 131 142 144 143 149 156 165 172 171 169 171 173 173 172 170 167 169 172 173 175 177 177 176 175 175 176 173 165 158 161 164 163 169 180 183 180 174 169 167 166 171 178 181 178 177 175 172
245 242 196 223 269 232 195 226 253 247 215 190 200 181 189 307 330 334 281 194 204 243 220 188 204 211 193 258 332 12 38 100 123 123 131 126 121 126 122 128 142 143 143 151 159 167 173 171 171 172 172 174 173 171 171 174 176 177 179 179 180 178 175 177 178 172 163 162 170 173 167 176 186 182 175 171 172 170 167 170 175 176 174 169 165 167
264 273 233 207 211 204 206 212 227 240 212 173 174 160 162 158 158 269 262 225 218 249 241 205 203 232 222 15 27 52 54 71 100 117 128 129 131 133 123 121 134 140 143 149 157 168 174 174 174 171 171 175 177 177 178 179 180 180 180 179 180 179 177 181 179 171 167 169 177 177 174 182 186 180 176 174 172 165 162 167 170 170 167 155 150 153
227 252 239 232 198 177 198 221 217 222 213 213 201 159 164 159 159 211 227 204 218 266 273 223 197 205 183 198 122 80 67 60 73 105 124 128 134 134 124 124 131 135 141 148 158 171 175 176 180 176 175 178 180 181 182 183 184 184 183 181 180 179 180 182 179 173 173 176 178 177 180 188 187 183 177 173 170 165 164 167 167 166 163 154 155 153
230 235 210 215 212 177 183 214 224 259 311 269 244 174 208 193 151 159 215 197 172 37 323 270 188 189 169 195 112 84 70 60 64 86 108 123 134 127 119 128 135 137 142 148 164 179 180 183 188 182 180 183 181 181 184 187 189 191 190 186 182 183 182 182 181 179 181 184 182 180 185 190 188 183 176 171 170 168 167 166 163 168 173 173 168 156
222 261 240 211 210 196 185 193 198 204 228 299 319 212 229 202 144 136 245 263 92 78 286 100 100 118 95 20 51 77 70 58 59 68 75 88 108 112 114 126 138 144 148 154 170 183 184 188 190 183 181 184 182 181 186 192 193 195 196 192 189 189 187 185 185 184 187 191 189 186 187 188 187 181 175 173 171 168 167 165 168 178 185 187 176 157
206 259 289 230 206 216 198 189 202 198 170 136 204 218 254 357 87 115 139 325 63 109 256 150 142 158 115 147 57 80 77 70 69 70 66 70 82 96 109 124 139 150 154 157 170 180 182 185 187 183 181 185 184 184 189 195 197 197 198 198 196 193 190 189 189 189 192 197 197 194 188 186 184 179 176 178 174 170 169 169 175 185 183 181 172 157
196 240 295 326 97 273 218 183 213 228 187 172 203 203 150 59 6 38 114 189 145 155 284 356 123 121 105 193 167 106 104 97 87 82 77 76 85 98 115 129 140 150 155 160 169 178 180 182 185 185 184 186 187 188 192 198 202 201 200 200 200 198 197 196 195 194 196 201 202 198 190 183 180 177 181 186 181 175 173 173 178 181 177 172 166 157
173 151 288 310 321 359 338 197 208 245 226 225 251 276 101 131 161 168 148 163 144 163 278 343 20 328 268 247 192 144 132 123 114 99 89 92 102 113 124 134 141 148 154 160 166 174 178 180 184 185 184 186 185 187 194 200 204 204 203 203 202 202 203 202 201 199 199 202 204 200 191 181 178 181 188 191 185 179 179 181 181 179 175 169 162 156
340 129 199 292 333 69 8 266 196 12 317 254 253 228 132 120 124 117 188 173 137 140 198 119 358 274 260 251 178 145 131 125 127 117 103 108 115 123 132 137 143 149 154 160 164 168 173 178 184 184 184 189 190 192 196 200 204 206 207 207 205 205 206 204 203 202 201 202 202 199 191 182 179 186 193 195 189 183 184 189 188 183 178 169 161 157
357 168 181 256 341 88 230 323 42 37 24 24 325 281 182 129 112 97 314 273 129 115 178 157 161 268 287 334 26 110 119 124 127 123 115 114 121 129 135 138 144 148 152 161 163 160 162 171 180 184 185 189 192 194 195 197 201 204 205 205 206 209 209 207 206 205 203 202 201 199 192 184 182 189 196 197 190 185 188 194 198 194 185 171 163 160
40 347 162 207 261 213 259 355 40 41 31 44 40 6 1 31 101 138 196 269 349 35 336 100 117 257 321 23 22 15 28 39 49 74 86 92 107 122 132 135 137 137 139 146 146 144 150 157 164 173 177 185 192 194 194 196 200 204 207 207 208 212 213 211 209 208 205 202 200 198 192 187 187 192 197 197 190 186 189 194 201 204 196 179 168 164
17 5 3 334 307 321 338 4 42 48 37 38 30 13 15 15 3 191 175 164 157 182 70 60 69 276 342 42 48 24 21 31 26 27 55 69 79 99 117 125 128 130 134 135 131 128 130 131 134 147 157 173 194 199 198 201 204 207 211 213 212 213 213 212 214 213 210 205 201 199 195 192 193 193 194 193 186 185 193 198 202 206 205 188 173 169
2 343 39 29 359 349 348 352 15 29 35 36 9 14 23 21 10 359 67 78 103 185 133 119 193 270 347 58 76 58 39 47 35 25 49 61 67 79 89 96 105 117 129 137 134 126 120 117 122 132 138 152 176 188 190 195 203 205 208 214 214 210 207 208 213 215 214 209 202 198 195 193 194 192 188 184 178 184 195 204 209 210 208 193 178 177
144 258 90 88 105 146 270 258 259 334 359 26 18 24 27 20 15 20 81 81 75 220 113 125 156 137 89 77 86 88 70 57 47 51 55 54 60 70 77 84 88 83 83 100 115 123 126 125 130 138 142 146 155 163 166 173 186 192 198 208 211 207 201 201 204 207 209 206 197 191 190 190 192 193 193 190 190 194 196 200 205 201 196 189 181 184
128 255 151 150 163 174 191 198 186 170 94 63 39 32 31 25 25 42 76 83 109 106 71 116 140 124 112 106 109 109 88 68 56 66 63 54 55 60 66 80 81 66 55 58 76 93 106 114 120 123 129 138 145 148 152 156 162 172 187 202 208 211 208 202 203 207 210 209 201 200 201 199 198 198 197 197 199 200 196 198 203 197 192 190 183 184
85 338 211 180 188 205 179 164 166 155 97 78 62 45 42 40 38 49 59 308 274 131 80 71 123 119 123 135 125 100 82 82 73 72 73 70 71 75 78 79 75 68 63 62 60 62 72 88 99 101 106 121 134 140 145 152 161 170 179 190 196 201 196 189 197 208 207 197 197 205 208 207 204 199 195 198 205 207 202 203 204 192 190 196 191 186
112 230 235 171 192 250 179 132 128 113 78 72 78 68 60 56 47 48 33 305 284 146 134 123 105 96 83 77 72 60 68 79 82 84 84 80 80 90 94 86 79 77 77 76 72 68 69 75 83 86 87 93 100 112 129 144 160 168 168 170 172 174 174 175 192 210 188 151 176 192 199 207 210 205 198 198 203 206 205 207 208 195 191 197 198 189
34 195 310 245 182 190 84 84 84 86 86 83 78 73 75 71 59 48 18 349 31 97 120 114 94 72 44 39 46 65 80 80 80 84 86 84 85 91 93 87 82 81 82 80 77 76 77 78 81 80 79 79 79 81 90 107 128 136 138 155 161 161 169 173 186 211 171 148 164 187 206 221 221 215 211 205 202 207 209 211 211 201 193 195 198 196
12 281 295 318 78 99 93 90 73 66 75 85 75 66 77 77 57 41 22 5 40 79 96 98 90 71 41 52 54 64 77 79 74 73 76 81 87 92 91 87 85 83 82 81 78 78 79 80 80 77 74 74 74 75 80 88 96 96 96 120 132 135 146 146 140 125 129 147 156 166 191 218 215 208 209 204 199 206 209 207 208 205 198 197 201 202
358 279 282 16 47 32 96 110 92 73 58 59 57 35 43 73 72 58 48 25 64 89 83 82 87 83 70 74 63 55 67 74 69 66 72 76 82 87 87 86 86 84 82 80 78 76 75 76 76 75 72 70 69 68 71 84 96 95 90 82 76 84 96 95 89 84 86 102 129 139 157 188 197 198 201 196 193 204 209 207 208 208 206 206 207 209
320 64 16 40 59 351 344 51 92 85 56 38 5 324 345 84 100 84 71 73 92 99 82 81 97 107 109 91 76 61 64 68 64 65 74 80 83 86 88 88 87 85 83 82 79 77 73 72 72 72 70 70 68 64 63 72 89 95 96 90 80 78 76 67 63 66 68 71 87 110 129 170 194 196 199 194 190 199 205 209 213 214 213 214 214 214
78 95 67 44 96 334 336 22 55 60 61 301 268 288 16 95 92 77 66 71 94 102 91 86 97 97 88 86 83 76 72 72 74 77 82 85 86 84 85 87 88 88 86 84 82 81 78 75 73 72 70 68 67 66 66 69 75 79 85 90 87 79 72 67 67 68 64 61 65 82 99 102 103 137 171 182 187 193 197 204 212 215 217 219 220 223
86 91 106 78 103 156 332 45 59 63 149 241 290 8 54 83 83 75 61 47 77 102 100 91 91 93 95 98 97 94 88 83 81 81 81 83 85 85 83 81 83 87 88 87 87 87 86 85 81 77 73 69 66 66 67 68 72 77 82 86 88 86 85 84 83 79 73 65 59 60 71 76 74 81 93 114 144 165 184 199 208 214 216 220 224 229
116 105 115 71 73 121 122 85 120 153 162 329 7 24 31 47 61 65 58 37 49 97 107 104 108 112 112 112 111 104 97 89 80 75 77 80 82 84 84 78 77 81 82 83 85 85 87 92 93 86 80 77 75 70 65 64 67 72 78 82 85 87 93 97 92 85 80 73 64 58 61 64 66 70 67 67 118 142 142 154 186 216 222 225 227 229
118 117 107 62 26 94 114 78 88 119 41 359 11 6 2 7 354 19 84 50 35 94 112 114 122 129 126 127 128 118 102 88 76 68 78 84 80 78 79 75 73 73 72 73 76 75 75 80 90 93 87 86 91 88 74 68 69 72 74 76 77 81 89 96 92 82 77 74 70 66 66 69 73 81 83 79 94 137 135 105 76 39 356 317 280 256
100 105 114 113 36 41 100 93 62 102 90 354 327 313 333 357 347 344 91 78 32 111 120 123 132 139 139 143 147 137 109 83 72 78 94 92 86 81 79 76 75 73 68 65 64 65 67 67 70 82 80 72 79 83 75 63 64 71 73 72 73 80 91 99 98 88 77 70 69 73 80 87 88 88 91 89 88 92 99 92 76 47 0 335 320 303
77 67 84 97 88 71 94 109 101 96 121 274 289 302 336 352 344 347 77 100 182 131 127 130 135 138 144 151 149 135 105 81 99 136 118 102 89 82 79 77 78 76 70 64 57 52 54 54 55 58 56 49 46 43 39 33 29 34 30 23 29 45 65 87 94 88 65 51 50 66 93 119 131 107 92 97 100 101 101 95 88 87 317 300 306 307
65 40 67 80 93 113 107 97 81 86 242 279 295 312 330 342 349 12 86 164 167 141 134 133 133 134 147 153 137 109 103 121 142 145 126 105 90 85 83 81 82 82 81 78 71 62 56 54 56 55 47 36 28 19 16 12 3 4 1 350 341 338 336 332 328 320 322 331 332 320 313 291 270 270 293 301 272 222 194 176 171 172 177 226 267 279
42 17 61 83 94 99 98 93 95 103 287 285 297 313 318 320 6 51 223 193 126 121 120 119 118 115 117 117 103 92 107 124 133 134 120 102 94 93 91 88 88 89 92 92 90 83 73 63 62 63 57 46 35 25 17 10 2 358 357 348 336 331 330 320 311 309 308 308 310 308 297 286 286 289 297 307 310 299 275 245 233 238 243 239 235 247
3 359 26 40 50 73 86 88 106 116 317 291 287 320 349 16 137 84 94 101 98 100 104 105 105 101 99 99 98 100 107 113 118 118 111 103 100 97 94 94 92 87 87 93 98 99 94 84 73 72 71 58 26 14 11 8 359 344 334 329 318 304 298 300 303 303 302 303 305 305 295 284 284 287 291 299 309 310 306 294 269 254 248 247 244 240
351 31 53 24 13 67 84 66 94 125 347 349 325 339 9 42 137 107 100 100 95 97 100 99 99 99 100 98 98 100 104 104 104 105 105 102 97 90 90 94 90 84 76 66 77 88 90 75 62 66 70 41 320 325 339 338 325 312 304 299 296 292 288 291 293 293 295 298 300 301 300 295 290 287 286 285 284 284 290 299 292 277 269 264 259 255
348 20 92 345 334 73 98 57 82 94 37 44 67 85 41 63 97 104 103 95 86 90 94 93 95 99 101 100 97 96 96 96 97 100 100 97 92 85 85 75 67 74 66 30 42 59 58 60 63 64 61 329 320 323 333 336 330 327 323 310 299 294 291 291 290 288 290 294 296 296 295 294 292 291 287 281 277 276 279 283 284 285 290 290 280 271
53 91 95 70 35 70 97 107 95 86 70 65 70 75 72 76 89 100 99 88 81 87 92 93 96 99 102 103 102 100 98 96 97 102 106 105 101 96 86 59 53 65 58 5 9 23 29 60 74 67 13 335 340 342 349 355 358 359 349 326 307 294 286 283 281 282 286 290 293 293 292 293 295 293 288 281 278 280 283 284 284 284 287 291 287 281
105 105 96 84 86 79 79 90 91 85 82 79 75 74 75 80 88 95 94 88 85 89 92 93 96 99 104 106 105 105 108 108 106 108 112 112 110 104 81 63 65 69 40 342 345 2 18 44 56 355 324 328 332 336 344 358 7 1 337 309 297 291 287 284 280 279 281 283 286 289 291 293 293 289 286 285 282 282 283 283 287 289 287 288 291 295
94 99 90 96 126 104 81 89 93 93 93 87 83 81 80 82 87 91 92 91 91 93 95 98 100 101 105 111 110 105 105 109 113 116 121 117 116 116 105 91 86 76 29 351 342 353 27 50 348 299 304 303 300 307 315 315 310 302 293 288 288 287 289 290 286 285 285 283 284 287 287 287 288 286 286 286 284 283 283 283 286 290 293 298 304 307
54 77 81 92 97 92 108 116 107 102 99 91 88 92 94 92 91 91 90 91 92 92 93 98 104 103 100 103 109 108 106 104 102 112 129 129 117 109 107 104 88 60 44 4 332 327 323 264 279 290 293 292 292 299 304 302 298 296 294 293 292 290 292 292 288 286 285 284 286 288 285 285 290 292 290 287 284 283 286 286 283 281 281 293 309 315
51 63 80 102 95 90 109 122 116 106 99 97 99 103 105 104 102 97 95 95 95 93 92 92 96 103 103 102 106 111 113 112 96 91 114 128 118 105 105 104 91 86 88 26 315 299 279 271 278 288 293 300 308 315 321 326 325 318 312 309 305 303 304 304 297 289 282 279 279 279 281 285 289 290 290 288 281 276 276 281 283 285 280 275 284 305
52 63 81 94 106 113 122 136 133 117 103 114 118 116 115 116 114 110 109 109 103 100 101 97 92 96 105 111 115 111 110 120 113 85 87 122 131 126 126 117 107 141 173 286 293 291 295 299 311 336 350 358 357 349 345 344 338 335 335 330 323 321 321 320 317 310 301 291 282 275 276 282 285 286 286 287 284 278 270 264 265 275 284 276 268 274
60 80 90 91 112 128 135 140 135 122 120 132 132 127 124 124 118 110 112 120 119 115 115 111 102 96 99 113 134 130 116 119 130 100 73 104 137 152 145 109 21 279 277 309 311 326 19 44 55 48 36 19 2 356 357 351 342 336 334 326 318 316 317 319 324 331 334 328 317 304 295 291 290 289 287 285 286 286 283 276 267 262 265 269 271 274